,,PA_Meas_PMT16A,,PR_Meas_QMR101_102,,RH_Meas_QMH101,,SR_Meas_QMS101,,TA_Meas_QMH101,,GenWind,,GenWind,
time,status,PA,status,PR,status,RH,status,SR,status,TA,status,DirAvg,status,SpdAvg,
2010-09-13, 00:00:05,VALID,918,VALID,0,VALID,94.1568,VALID,0,VALID,17.8897,VALID,16,VALID,0.295312,
2010-09-13, 00:01:05,VALID,918.015,VALID,0,VALID,93.5393,VALID,0,VALID,17.8313,VALID,16,VALID,0.0953125,
2010-09-13, 00:02:05,VALID,918.015,VALID,0,VALID,93.8214,VALID,0,VALID,17.8521,VALID,16,VALID,0,
2010-09-13, 00:03:05,VALID,917.984,VALID,0,VALID,93.6155,VALID,0,VALID,17.8118,VALID,16,VALID,0,
2010-09-13, 00:04:05,VALID,917.99,VALID,0,VALID,93.9434,VALID,0,VALID,17.8118,VALID,16,VALID,0.503516,
2010-09-13, 00:05:05,VALID,917.952,VALID,0,VALID,93.5774,VALID,0,VALID,17.7728,VALID,16,VALID,0.470703,
2010-09-13, 00:06:05,VALID,917.957,VALID,0,VALID,93.1734,VALID,0,VALID,17.7533,VALID,16,VALID,0.434375,
2010-09-13, 00:07:05,VALID,917.948,VALID,0,VALID,93.425,VALID,0,VALID,17.7741,VALID,16,VALID,0.433594,
2010-09-13, 00:08:05,VALID,917.922,VALID,0,VALID,93.2649,VALID,0,VALID,17.7143,VALID,16,VALID,0.227344,
2010-09-13, 00:09:05,VALID,917.856,VALID,0,VALID,93.4936,VALID,0,VALID,17.7143,VALID,16,VALID,0.194922,
2010-09-13, 00:10:05,VALID,917.856,VALID,0,VALID,93.5851,VALID,0,VALID,17.7338,VALID,16,VALID,0.00742187,
2010-09-13, 00:11:05,VALID,917.818,VALID,0,VALID,93.9052,VALID,0.107441,VALID,17.752,VALID,16,VALID,0,
2010-09-13, 00:12:05,VALID,917.83,VALID,0,VALID,93.6918,VALID,0,VALID,17.7143,VALID,16,VALID,0.50625,
2010-09-13, 00:13:05,VALID,917.854,VALID,0,VALID,94.9115,VALID,0.107441,VALID,17.8104,VALID,16,VALID,0.66875,
2010-09-13, 00:14:05,VALID,917.85,VALID,0,VALID,95.4528,VALID,0,VALID,17.8494,VALID,16,VALID,0.5125,
2010-09-13, 00:15:05,VALID,917.862,VALID,0,VALID,95.6053,VALID,0.107441,VALID,17.8494,VALID,16,VALID,0.516016,
2010-09-13, 00:16:05,VALID,917.871,VALID,0,VALID,95.4452,VALID,0.107441,VALID,17.7909,VALID,16,VALID,0.228906,
2010-09-13, 00:17:05,VALID,917.896,VALID,0,VALID,95.3079,VALID,0.107441,VALID,17.7728,VALID,16,VALID,0.355859,
2010-09-13, 00:18:05,VALID,917.893,VALID,0,VALID,94.7972,VALID,0,VALID,17.6545,VALID,16,VALID,0.451562,
2010-09-13, 00:19:04,VALID,917.917,VALID,0,VALID,95.1555,VALID,0,VALID,17.6935,VALID,16,VALID,0.494141,
2010-09-13, 00:20:04,VALID,917.897,VALID,0,VALID,95.468,VALID,0.107441,VALID,17.7325,VALID,16,VALID,0.446875,
2010-09-13, 00:21:04,VALID,917.901,VALID,0,VALID,95.7958,VALID,0,VALID,17.7714,VALID,16,VALID,0.533203,
2010-09-13, 00:22:04,VALID,917.885,VALID,0,VALID,96.116,VALID,0,VALID,17.8884,VALID,16,VALID,0.684375,
2010-09-13, 00:23:04,VALID,917.914,VALID,0,VALID,96.3295,VALID,0.107441,VALID,17.9663,VALID,16,VALID,0.304297,
2010-09-13, 00:24:04,VALID,917.941,VALID,0,VALID,96.421,VALID,0,VALID,17.9858,VALID,16,VALID,0.303125,
2010-09-13, 00:25:04,VALID,917.926,VALID,0,VALID,96.3981,VALID,0.107441,VALID,17.9872,VALID,16,VALID,0.663281,
2010-09-13, 00:26:04,VALID,917.938,VALID,0,VALID,96.5048,VALID,0,VALID,18.0651,VALID,16,VALID,0.694531,
2010-09-13, 00:27:04,VALID,917.953,VALID,0,VALID,96.5811,VALID,0.107441,VALID,18.1041,VALID,16,VALID,0.639063,
2010-09-13, 00:28:04,VALID,917.99,VALID,0,VALID,96.6344,VALID,0.107441,VALID,18.1417,VALID,16,VALID,0.517969,
2010-09-13, 00:29:04,VALID,917.996,VALID,0,VALID,96.6039,VALID,0.107441,VALID,18.1028,VALID,16,VALID,0.516406,
2010-09-13, 00:30:04,VALID,918.025,VALID,0,VALID,96.6192,VALID,0.107441,VALID,18.1236,VALID,16,VALID,0.430078,
2010-09-13, 00:31:04,VALID,918.041,VALID,0,VALID,96.642,VALID,0.107441,VALID,18.1028,VALID,16,VALID,0.429297,
2010-09-13, 00:32:04,VALID,918.028,VALID,0,VALID,96.4515,VALID,0,VALID,18.0248,VALID,16,VALID,0.458203,
2010-09-13, 00:33:04,VALID,918.022,VALID,0,VALID,96.2075,VALID,0.107441,VALID,17.8689,VALID,16,VALID,0.503906,
2010-09-13, 00:34:04,VALID,918.01,VALID,0,VALID,96.0932,VALID,0.107441,VALID,17.7909,VALID,16,VALID,0.697266,
2010-09-13, 00:35:04,VALID,918.026,VALID,0,VALID,96.1008,VALID,0,VALID,17.7533,VALID,16,VALID,0.572656,
2010-09-13, 00:36:04,VALID,918.023,VALID,0,VALID,96.2685,VALID,0.107441,VALID,17.7728,VALID,16,VALID,0.569141,
2010-09-13, 00:37:04,VALID,918.009,VALID,0,VALID,96.4362,VALID,0.107441,VALID,17.7909,VALID,16,VALID,0.378516,
2010-09-13, 00:38:04,VALID,918.022,VALID,0,VALID,96.5277,VALID,0.107441,VALID,17.8299,VALID,16,VALID,0.430859,
2010-09-13, 00:39:04,VALID,918.015,VALID,0,VALID,96.5353,VALID,0.107441,VALID,17.8104,VALID,16,VALID,0.55625,
2010-09-13, 00:40:04,VALID,917.998,VALID,0,VALID,96.5201,VALID,0,VALID,17.8104,VALID,16,VALID,0.684766,
2010-09-13, 00:41:04,VALID,917.996,VALID,0,VALID,96.6497,VALID,0,VALID,17.8897,VALID,16,VALID,0.558203,
2010-09-13, 00:42:04,VALID,918.006,VALID,0,VALID,96.5963,VALID,0,VALID,17.8508,VALID,16,VALID,0.483594,
2010-09-13, 00:43:04,VALID,917.967,VALID,0,VALID,96.4438,VALID,0,VALID,17.7923,VALID,16,VALID,0.387891,
2010-09-13, 00:44:04,VALID,917.986,VALID,0,VALID,96.3752,VALID,0,VALID,17.7338,VALID,16,VALID,0.385547,
2010-09-13, 00:45:04,VALID,918.004,VALID,0,VALID,96.0932,VALID,0,VALID,17.5974,VALID,16,VALID,0.584766,
2010-09-13, 00:46:04,VALID,917.984,VALID,0,VALID,95.5824,VALID,0,VALID,17.422,VALID,16,VALID,0.699609,
2010-09-13, 00:47:04,VALID,917.973,VALID,0,VALID,95.1555,VALID,0,VALID,17.2661,VALID,16,VALID,1.01367,
2010-09-13, 00:48:04,VALID,917.963,VALID,0,VALID,96.1465,VALID,0,VALID,17.4415,VALID,16,VALID,1.07344,
2010-09-13, 00:49:04,VALID,917.938,VALID,0,VALID,96.5429,VALID,0,VALID,17.5779,VALID,16,VALID,0.844141,
2010-09-13, 00:50:04,VALID,917.951,VALID,0,VALID,96.7869,VALID,0,VALID,17.7143,VALID,16,VALID,0.813672,
2010-09-13, 00:51:04,VALID,917.906,VALID,0,VALID,96.8936,VALID,0,VALID,17.8326,VALID,16,VALID,0.913281,
2010-09-13, 00:52:04,VALID,917.897,VALID,0,VALID,96.947,VALID,0,VALID,17.8897,VALID,16,VALID,0.832812,
2010-09-13, 00:53:04,VALID,917.86,VALID,0,VALID,96.9546,VALID,0,VALID,17.9301,VALID,16,VALID,1.10781,
2010-09-13, 00:54:04,VALID,917.859,VALID,0,VALID,96.8936,VALID,0,VALID,17.9496,VALID,16,VALID,1.2543,
2010-09-13, 00:55:04,VALID,917.831,VALID,0,VALID,96.7107,VALID,0,VALID,17.8508,VALID,16,VALID,1.05938,
2010-09-13, 00:56:04,VALID,917.811,VALID,0,VALID,96.5734,VALID,0,VALID,17.7936,VALID,16,VALID,0.869141,
2010-09-13, 00:57:04,VALID,917.8,VALID,0,VALID,96.4667,VALID,0,VALID,17.7338,VALID,16,VALID,0.529297,
2010-09-13, 00:58:04,VALID,917.776,VALID,0,VALID,96.3524,VALID,0,VALID,17.6948,VALID,16,VALID,0.932031,
2010-09-13, 00:59:04,VALID,917.818,VALID,0,VALID,96.299,VALID,0,VALID,17.6559,VALID,16,VALID,0.557813,
2010-09-13, 01:00:04,VALID,917.819,VALID,0,VALID,96.2761,VALID,0,VALID,17.6169,VALID,16,VALID,0.221484,
2010-09-13, 01:01:04,VALID,917.869,VALID,0,VALID,96.2075,VALID,0,VALID,17.5779,VALID,16,VALID,0.0113281,
2010-09-13, 01:02:04,VALID,917.901,VALID,0,VALID,95.9712,VALID,0,VALID,17.5,VALID,16,VALID,0.247656,
2010-09-13, 01:03:04,VALID,917.937,VALID,0,VALID,96.1313,VALID,0,VALID,17.5389,VALID,16,VALID,0.396875,
2010-09-13, 01:04:04,VALID,917.933,VALID,0,VALID,96.3295,VALID,0,VALID,17.6169,VALID,16,VALID,0.374609,
2010-09-13, 01:05:04,VALID,917.97,VALID,0,VALID,96.4896,VALID,0,VALID,17.6754,VALID,16,VALID,0,
2010-09-13, 01:06:04,VALID,917.982,VALID,0,VALID,96.5582,VALID,0,VALID,17.6948,VALID,16,VALID,0.0195313,
2010-09-13, 01:07:04,VALID,917.968,VALID,0,VALID,96.4972,VALID,0,VALID,17.7157,VALID,16,VALID,0,
2010-09-13, 01:08:04,VALID,917.962,VALID,0,VALID,96.4743,VALID,0,VALID,17.6948,VALID,16,VALID,0,
2010-09-13, 01:09:04,VALID,917.969,VALID,0,VALID,96.3676,VALID,0,VALID,17.6767,VALID,16,VALID,0,
2010-09-13, 01:10:04,VALID,917.956,VALID,0,VALID,96.3752,VALID,0,VALID,17.7157,VALID,16,VALID,0,
2010-09-13, 01:11:04,VALID,917.99,VALID,0,VALID,96.2761,VALID,0.107441,VALID,17.6935,VALID,16,VALID,0,
2010-09-13, 01:12:04,VALID,917.98,VALID,0,VALID,96.0703,VALID,0.107441,VALID,17.6156,VALID,16,VALID,0,
2010-09-13, 01:13:04,VALID,917.966,VALID,0,VALID,95.8187,VALID,0,VALID,17.5961,VALID,16,VALID,0,
2010-09-13, 01:14:04,VALID,917.994,VALID,0,VALID,95.7044,VALID,0,VALID,17.635,VALID,16,VALID,0,
2010-09-13, 01:15:04,VALID,917.967,VALID,0,VALID,95.6281,VALID,0.107441,VALID,17.6156,VALID,16,VALID,0,
2010-09-13, 01:16:04,VALID,917.954,VALID,0,VALID,95.0564,VALID,0,VALID,17.5584,VALID,16,VALID,0.219141,
2010-09-13, 01:17:04,VALID,917.939,VALID,0,VALID,95.2851,VALID,0,VALID,17.6169,VALID,16,VALID,0.626172,
2010-09-13, 01:18:04,VALID,917.926,VALID,0,VALID,95.2317,VALID,0.107441,VALID,17.5584,VALID,16,VALID,0.607813,
2010-09-13, 01:19:04,VALID,917.946,VALID,0,VALID,94.9954,VALID,0.107441,VALID,17.5194,VALID,16,VALID,0.737109,
2010-09-13, 01:20:04,VALID,917.918,VALID,0,VALID,95.1021,VALID,0.107441,VALID,17.4986,VALID,16,VALID,0.770312,
2010-09-13, 01:21:04,VALID,917.916,VALID,0,VALID,95.6815,VALID,0,VALID,17.6169,VALID,16,VALID,0.719531,
2010-09-13, 01:22:04,VALID,917.963,VALID,0,VALID,95.8721,VALID,0.107441,VALID,17.5974,VALID,16,VALID,0.517187,
2010-09-13, 01:23:04,VALID,918.005,VALID,0,VALID,95.6967,VALID,0,VALID,17.5584,VALID,16,VALID,0.750391,
2010-09-13, 01:24:04,VALID,918.002,VALID,0,VALID,95.6281,VALID,0,VALID,17.5194,VALID,16,VALID,0.615234,
2010-09-13, 01:25:04,VALID,918.065,VALID,0,VALID,94.9496,VALID,0.107441,VALID,17.383,VALID,16,VALID,0.649609,
2010-09-13, 01:26:04,VALID,918.073,VALID,0,VALID,94.1034,VALID,0.107441,VALID,17.2466,VALID,16,VALID,0.733594,
2010-09-13, 01:27:04,VALID,918.115,VALID,0,VALID,94.355,VALID,0.107441,VALID,17.1479,VALID,16,VALID,0.603125,
2010-09-13, 01:28:04,VALID,918.156,VALID,0,VALID,95.0183,VALID,0,VALID,17.1687,VALID,16,VALID,0.111328,
2010-09-13, 01:29:04,VALID,918.154,VALID,0,VALID,95.2775,VALID,0,VALID,17.1492,VALID,16,VALID,0.225391,
2010-09-13, 01:30:04,VALID,918.164,VALID,0,VALID,95.4909,VALID,0,VALID,17.1492,VALID,16,VALID,0.0777344,
2010-09-13, 01:31:04,VALID,918.165,VALID,0,VALID,95.7349,VALID,0.107441,VALID,17.2271,VALID,16,VALID,0.405859,
2010-09-13, 01:32:04,VALID,918.157,VALID,0,VALID,96.0779,VALID,0,VALID,17.3038,VALID,16,VALID,0.349609,
2010-09-13, 01:33:04,VALID,918.129,VALID,0,VALID,95.9636,VALID,0.107441,VALID,17.2843,VALID,16,VALID,0.823828,
2010-09-13, 01:34:04,VALID,918.141,VALID,0,VALID,95.9941,VALID,0.107441,VALID,17.3246,VALID,16,VALID,0.494531,
2010-09-13, 01:35:04,VALID,918.129,VALID,0,VALID,95.9559,VALID,0.107441,VALID,17.2648,VALID,16,VALID,0.0496094,
2010-09-13, 01:36:04,VALID,918.118,VALID,0,VALID,95.773,VALID,0,VALID,17.2271,VALID,16,VALID,0.233984,
2010-09-13, 01:37:04,VALID,918.09,VALID,0,VALID,95.468,VALID,0.107441,VALID,17.2064,VALID,16,VALID,0.541406,
2010-09-13, 01:38:04,VALID,918.105,VALID,0,VALID,95.6129,VALID,0,VALID,17.2843,VALID,16,VALID,0.889844,
2010-09-13, 01:39:04,VALID,918.099,VALID,0,VALID,95.9483,VALID,0.107441,VALID,17.383,VALID,16,VALID,0.893359,
2010-09-13, 01:40:04,VALID,918.073,VALID,0,VALID,96.1236,VALID,0.107441,VALID,17.3817,VALID,16,VALID,0.849219,
2010-09-13, 01:41:04,VALID,918.091,VALID,0,VALID,96.0245,VALID,0,VALID,17.3649,VALID,16,VALID,0.732031,
2010-09-13, 01:42:04,VALID,918.087,VALID,0,VALID,96.1541,VALID,0,VALID,17.4038,VALID,16,VALID,0.469531,
2010-09-13, 01:43:04,VALID,918.055,VALID,0,VALID,96.0398,VALID,0,VALID,17.3844,VALID,16,VALID,0.464453,
2010-09-13, 01:44:04,VALID,918.055,VALID,0,VALID,95.773,VALID,0,VALID,17.2869,VALID,16,VALID,0.5375,
2010-09-13, 01:45:04,VALID,918.05,VALID,0,VALID,95.5214,VALID,0,VALID,17.209,VALID,16,VALID,0.366016,
2010-09-13, 01:46:04,VALID,918.038,VALID,0,VALID,95.4985,VALID,0,VALID,17.1505,VALID,16,VALID,0.549609,
2010-09-13, 01:47:04,VALID,918.068,VALID,0,VALID,95.6891,VALID,0,VALID,17.1505,VALID,16,VALID,0.422266,
2010-09-13, 01:48:04,VALID,918.039,VALID,0,VALID,95.773,VALID,0,VALID,17.1115,VALID,16,VALID,0.173828,
2010-09-13, 01:49:04,VALID,918.057,VALID,0,VALID,95.895,VALID,0,VALID,17.092,VALID,16,VALID,0.195703,
2010-09-13, 01:50:04,VALID,918.029,VALID,0,VALID,95.7272,VALID,0,VALID,17.0336,VALID,16,VALID,0,
2010-09-13, 01:51:04,VALID,918.021,VALID,0,VALID,95.6281,VALID,0,VALID,16.9556,VALID,16,VALID,0,
2010-09-13, 01:52:04,VALID,918.036,VALID,0,VALID,94.5837,VALID,0,VALID,16.8192,VALID,16,VALID,0.328906,
2010-09-13, 01:53:04,VALID,917.987,VALID,0,VALID,93.8443,VALID,0,VALID,16.7023,VALID,16,VALID,0.450391,
2010-09-13, 01:54:04,VALID,917.997,VALID,0,VALID,94.6676,VALID,0,VALID,16.7023,VALID,16,VALID,0.575,
2010-09-13, 01:55:04,VALID,917.965,VALID,0,VALID,95.895,VALID,0,VALID,16.8387,VALID,16,VALID,0.520703,
2010-09-13, 01:56:04,VALID,917.943,VALID,0,VALID,96.1389,VALID,0,VALID,16.8569,VALID,16,VALID,0.454688,
2010-09-13, 01:57:04,VALID,917.887,VALID,0,VALID,96.2837,VALID,0,VALID,16.8764,VALID,16,VALID,0.402344,
2010-09-13, 01:58:04,VALID,917.878,VALID,0,VALID,96.3295,VALID,0,VALID,16.8569,VALID,16,VALID,0.569531,
2010-09-13, 01:59:04,VALID,917.893,VALID,0,VALID,96.4362,VALID,0,VALID,16.8764,VALID,16,VALID,0.714844,
2010-09-13, 02:00:04,VALID,917.879,VALID,0,VALID,96.6497,VALID,0,VALID,17.0128,VALID,16,VALID,0.308203,
2010-09-13, 02:01:04,VALID,917.878,VALID,0,VALID,96.6954,VALID,0,VALID,17.0907,VALID,16,VALID,0.200781,
2010-09-13, 02:02:04,VALID,917.854,VALID,0,VALID,96.6725,VALID,0,VALID,17.1102,VALID,16,VALID,0.255469,
2010-09-13, 02:03:04,VALID,917.876,VALID,0,VALID,96.5429,VALID,0.107441,VALID,17.1297,VALID,16,VALID,0,
2010-09-13, 02:04:04,VALID,917.848,VALID,0,VALID,96.3905,VALID,0,VALID,17.1102,VALID,16,VALID,0,
2010-09-13, 02:05:04,VALID,917.834,VALID,0,VALID,96.2304,VALID,0,VALID,17.1102,VALID,16,VALID,0.135547,
2010-09-13, 02:06:04,VALID,917.791,VALID,0,VALID,96.1999,VALID,0,VALID,17.1882,VALID,16,VALID,0.401172,
2010-09-13, 02:07:04,VALID,917.783,VALID,0,VALID,96.0093,VALID,0,VALID,17.1297,VALID,16,VALID,0.414844,
2010-09-13, 02:08:04,VALID,917.747,VALID,0,VALID,95.7654,VALID,0,VALID,17.1492,VALID,16,VALID,0.555859,
2010-09-13, 02:09:04,VALID,917.732,VALID,0,VALID,95.6053,VALID,0,VALID,17.1492,VALID,16,VALID,0.454297,
2010-09-13, 02:10:04,VALID,917.735,VALID,0,VALID,95.4757,VALID,0.107441,VALID,17.1492,VALID,16,VALID,0.175,
2010-09-13, 02:11:04,VALID,917.713,VALID,0,VALID,95.4375,VALID,0,VALID,17.1687,VALID,16,VALID,0.104297,
2010-09-13, 02:12:04,VALID,917.702,VALID,0,VALID,95.247,VALID,0,VALID,17.17,VALID,16,VALID,0,
2010-09-13, 02:13:04,VALID,917.655,VALID,0,VALID,95.0106,VALID,0,VALID,17.1492,VALID,16,VALID,0,
2010-09-13, 02:14:04,VALID,917.598,VALID,0,VALID,94.7819,VALID,0,VALID,17.17,VALID,16,VALID,0,
2010-09-13, 02:15:04,VALID,917.573,VALID,0,VALID,94.8887,VALID,0,VALID,17.209,VALID,16,VALID,0.170312,
2010-09-13, 02:16:04,VALID,917.537,VALID,0,VALID,94.5685,VALID,0,VALID,17.1687,VALID,16,VALID,0.489844,
2010-09-13, 02:17:04,VALID,917.501,VALID,0,VALID,94.3855,VALID,0,VALID,17.1492,VALID,16,VALID,0.442969,
2010-09-13, 02:18:04,VALID,917.459,VALID,0,VALID,93.8366,VALID,0,VALID,17.1297,VALID,16,VALID,0.548437,
2010-09-13, 02:19:04,VALID,917.445,VALID,0,VALID,93.5774,VALID,0,VALID,17.1492,VALID,16,VALID,0.271875,
2010-09-13, 02:20:04,VALID,917.431,VALID,0,VALID,93.3792,VALID,0,VALID,17.1687,VALID,16,VALID,0.430469,
2010-09-13, 02:21:04,VALID,917.414,VALID,0,VALID,93.3106,VALID,0,VALID,17.1492,VALID,16,VALID,0.563672,
2010-09-13, 02:22:04,VALID,917.427,VALID,0,VALID,93.3182,VALID,0,VALID,17.1882,VALID,16,VALID,0.577344,
2010-09-13, 02:23:04,VALID,917.461,VALID,0,VALID,93.7604,VALID,0,VALID,17.2479,VALID,16,VALID,0.849219,
2010-09-13, 02:24:04,VALID,917.438,VALID,0,VALID,93.5546,VALID,0,VALID,17.2271,VALID,16,VALID,1.30039,
2010-09-13, 02:25:04,VALID,917.469,VALID,0,VALID,93.7375,VALID,0.107441,VALID,17.1687,VALID,16,VALID,1.16055,
2010-09-13, 02:26:04,VALID,917.457,VALID,0,VALID,94.4389,VALID,0,VALID,17.1492,VALID,16,VALID,1.05664,
2010-09-13, 02:27:04,VALID,917.467,VALID,0,VALID,95.1097,VALID,0,VALID,17.1492,VALID,16,VALID,1.11484,
2010-09-13, 02:28:04,VALID,917.405,VALID,0,VALID,95.5671,VALID,0.107441,VALID,17.1882,VALID,16,VALID,1.06484,
2010-09-13, 02:29:04,VALID,917.399,VALID,0,VALID,95.8721,VALID,0,VALID,17.1882,VALID,16,VALID,0.8375,
2010-09-13, 02:30:04,VALID,917.361,VALID,0,VALID,96.0017,VALID,0,VALID,17.1882,VALID,16,VALID,1.07578,
2010-09-13, 02:31:04,VALID,917.359,VALID,0,VALID,96.0703,VALID,0.107441,VALID,17.1687,VALID,16,VALID,1.01719,
2010-09-13, 02:32:04,VALID,917.338,VALID,0,VALID,96.1389,VALID,0,VALID,17.1882,VALID,16,VALID,0.911719,
2010-09-13, 02:33:04,VALID,917.343,VALID,0,VALID,96.1694,VALID,0,VALID,17.1882,VALID,16,VALID,0.820313,
2010-09-13, 02:34:04,VALID,917.33,VALID,0,VALID,96.1999,VALID,0,VALID,17.1882,VALID,16,VALID,0.682422,
2010-09-13, 02:35:04,VALID,917.325,VALID,0,VALID,96.1389,VALID,0.107441,VALID,17.1492,VALID,16,VALID,0.941406,
2010-09-13, 02:36:04,VALID,917.324,VALID,0,VALID,96.1541,VALID,0.107441,VALID,17.1492,VALID,16,VALID,1.09609,
2010-09-13, 02:37:04,VALID,917.335,VALID,0,VALID,96.1923,VALID,0,VALID,17.1895,VALID,17,VALID,1.06367,
2010-09-13, 02:38:04,VALID,917.308,VALID,0,VALID,96.1846,VALID,0,VALID,17.1687,VALID,17,VALID,0.609375,
2010-09-13, 02:39:04,VALID,917.34,VALID,0,VALID,96.0703,VALID,0,VALID,17.17,VALID,17,VALID,0.416016,
2010-09-13, 02:40:04,VALID,917.313,VALID,0,VALID,96.0779,VALID,0,VALID,17.1687,VALID,17,VALID,0.391797,
2010-09-13, 02:41:04,VALID,917.302,VALID,0,VALID,95.9864,VALID,0,VALID,17.1297,VALID,17,VALID,0.406641,
2010-09-13, 02:42:04,VALID,917.319,VALID,0,VALID,95.895,VALID,0,VALID,17.131,VALID,17,VALID,0.254687,
2010-09-13, 02:43:04,VALID,917.325,VALID,0,VALID,95.8111,VALID,0,VALID,17.1102,VALID,17,VALID,0.141406,
2010-09-13, 02:44:04,VALID,917.319,VALID,0,VALID,95.4985,VALID,0,VALID,17.0518,VALID,17,VALID,0.1375,
2010-09-13, 02:45:04,VALID,917.255,VALID,0,VALID,95.3766,VALID,0,VALID,17.0323,VALID,17,VALID,0.477344,
2010-09-13, 02:46:04,VALID,917.282,VALID,0,VALID,95.468,VALID,0,VALID,17.0128,VALID,17,VALID,0.490625,
2010-09-13, 02:47:04,VALID,917.253,VALID,0,VALID,95.4528,VALID,0,VALID,16.9543,VALID,17,VALID,0.398828,
2010-09-13, 02:48:04,VALID,917.259,VALID,0,VALID,95.6205,VALID,0,VALID,16.9154,VALID,17,VALID,0.735156,
2010-09-13, 02:49:04,VALID,917.286,VALID,0,VALID,95.9331,VALID,0,VALID,16.9933,VALID,17,VALID,0.536719,
2010-09-13, 02:50:04,VALID,917.337,VALID,0,VALID,95.8416,VALID,0,VALID,16.9349,VALID,17,VALID,0.514844,
2010-09-13, 02:51:04,VALID,917.355,VALID,0,VALID,95.247,VALID,0,VALID,16.8374,VALID,17,VALID,0.573438,
2010-09-13, 02:52:04,VALID,917.346,VALID,0,VALID,95.1631,VALID,0,VALID,16.8374,VALID,17,VALID,0.4,
2010-09-13, 02:53:04,VALID,917.332,VALID,0,VALID,95.3308,VALID,0,VALID,16.818,VALID,17,VALID,0.752344,
2010-09-13, 02:54:04,VALID,917.295,VALID,0,VALID,95.5367,VALID,0,VALID,16.7985,VALID,17,VALID,0.967188,
2010-09-13, 02:55:04,VALID,917.325,VALID,0,VALID,95.6205,VALID,0.107441,VALID,16.7595,VALID,17,VALID,1.11367,
2010-09-13, 02:56:04,VALID,917.329,VALID,0,VALID,95.8416,VALID,0,VALID,16.7595,VALID,17,VALID,1.23984,
2010-09-13, 02:57:04,VALID,917.351,VALID,0,VALID,95.9941,VALID,0,VALID,16.7595,VALID,17,VALID,1.21211,
2010-09-13, 02:58:04,VALID,917.371,VALID,0,VALID,96.0398,VALID,0,VALID,16.74,VALID,17,VALID,0.400781,
2010-09-13, 02:59:04,VALID,917.383,VALID,0,VALID,96.0932,VALID,0,VALID,16.74,VALID,17,VALID,0.452734,
2010-09-13, 03:00:04,VALID,917.4,VALID,0,VALID,96.1541,VALID,0,VALID,16.7205,VALID,17,VALID,0.763281,
2010-09-13, 03:01:04,VALID,917.387,VALID,0,VALID,96.1923,VALID,0,VALID,16.74,VALID,17,VALID,0.172656,
2010-09-13, 03:02:04,VALID,917.402,VALID,0,VALID,96.2685,VALID,0,VALID,16.7205,VALID,17,VALID,0.204297,
2010-09-13, 03:03:04,VALID,917.367,VALID,0,VALID,96.3676,VALID,0,VALID,16.7595,VALID,17,VALID,0.525781,
2010-09-13, 03:04:04,VALID,917.404,VALID,0,VALID,96.4286,VALID,0,VALID,16.779,VALID,17,VALID,0.733203,
2010-09-13, 03:05:04,VALID,917.413,VALID,0,VALID,96.4591,VALID,0,VALID,16.7998,VALID,17,VALID,0.760938,
2010-09-13, 03:06:04,VALID,917.408,VALID,0,VALID,96.5277,VALID,0,VALID,16.8192,VALID,17,VALID,0.735937,
2010-09-13, 03:07:04,VALID,917.407,VALID,0,VALID,96.5506,VALID,0,VALID,16.7985,VALID,17,VALID,0.562891,
2010-09-13, 03:08:04,VALID,917.421,VALID,0,VALID,96.5582,VALID,0,VALID,16.818,VALID,17,VALID,0.337891,
2010-09-13, 03:09:04,VALID,917.438,VALID,0,VALID,96.5506,VALID,0,VALID,16.818,VALID,17,VALID,0.553516,
2010-09-13, 03:10:04,VALID,917.431,VALID,0,VALID,96.5124,VALID,0,VALID,16.818,VALID,17,VALID,0.776172,
2010-09-13, 03:11:04,VALID,917.409,VALID,0,VALID,96.5582,VALID,0,VALID,16.8569,VALID,17,VALID,0.741797,
2010-09-13, 03:12:04,VALID,917.41,VALID,0,VALID,96.5887,VALID,0,VALID,16.9349,VALID,17,VALID,0.894922,
2010-09-13, 03:13:04,VALID,917.408,VALID,0,VALID,96.6192,VALID,0,VALID,16.9738,VALID,17,VALID,0.882422,
2010-09-13, 03:14:04,VALID,917.42,VALID,0,VALID,96.5582,VALID,0,VALID,16.9738,VALID,17,VALID,0.839453,
2010-09-13, 03:15:04,VALID,917.392,VALID,0,VALID,96.4286,VALID,0,VALID,16.9543,VALID,17,VALID,0.841797,
2010-09-13, 03:16:04,VALID,917.407,VALID,0,VALID,96.3981,VALID,0,VALID,16.9933,VALID,17,VALID,0.726172,
2010-09-13, 03:17:04,VALID,917.403,VALID,0,VALID,96.2533,VALID,0,VALID,16.9738,VALID,17,VALID,1.11289,
2010-09-13, 03:18:04,VALID,917.356,VALID,0,VALID,96.0017,VALID,0,VALID,16.9349,VALID,17,VALID,0.948438,
2010-09-13, 03:19:04,VALID,917.354,VALID,0,VALID,95.8111,VALID,0,VALID,16.9349,VALID,17,VALID,1.04141,
2010-09-13, 03:20:04,VALID,917.301,VALID,0,VALID,95.6205,VALID,0,VALID,16.9154,VALID,17,VALID,1.13125,
2010-09-13, 03:21:04,VALID,917.323,VALID,0,VALID,95.5519,VALID,0,VALID,16.9154,VALID,17,VALID,1.27305,
2010-09-13, 03:22:04,VALID,917.329,VALID,0,VALID,95.5138,VALID,0,VALID,16.9349,VALID,17,VALID,0.982422,
2010-09-13, 03:23:04,VALID,917.306,VALID,0,VALID,95.4147,VALID,0,VALID,16.9154,VALID,17,VALID,0.707031,
2010-09-13, 03:24:04,VALID,917.351,VALID,0,VALID,95.3842,VALID,0,VALID,16.9154,VALID,17,VALID,0.967188,
2010-09-13, 03:25:04,VALID,917.332,VALID,0,VALID,95.2698,VALID,0,VALID,16.8959,VALID,17,VALID,0.799219,
2010-09-13, 03:26:04,VALID,917.301,VALID,0,VALID,95.1479,VALID,0,VALID,16.8777,VALID,17,VALID,1.0625,
2010-09-13, 03:27:04,VALID,917.308,VALID,0,VALID,95.1936,VALID,0,VALID,16.818,VALID,17,VALID,1.15352,
2010-09-13, 03:28:04,VALID,917.293,VALID,0,VALID,95.125,VALID,0,VALID,16.8192,VALID,17,VALID,0.978516,
2010-09-13, 03:29:04,VALID,917.238,VALID,0,VALID,95.2241,VALID,0,VALID,16.779,VALID,17,VALID,1.29609,
2010-09-13, 03:30:04,VALID,917.248,VALID,0,VALID,95.2775,VALID,0,VALID,16.7205,VALID,106,VALID,0.963281,
2010-09-13, 03:31:04,VALID,917.218,VALID,0,VALID,95.4223,VALID,0,VALID,16.74,VALID,182,VALID,1.0375,
2010-09-13, 03:32:04,VALID,917.182,VALID,0,VALID,95.5824,VALID,0,VALID,16.7205,VALID,170,VALID,1.38125,
2010-09-13, 03:33:04,VALID,917.172,VALID,0,VALID,95.6662,VALID,0,VALID,16.6816,VALID,159,VALID,1.24297,
2010-09-13, 03:34:04,VALID,917.137,VALID,0,VALID,95.7654,VALID,0,VALID,16.6036,VALID,159,VALID,0.883984,
2010-09-13, 03:35:04,VALID,917.136,VALID,0,VALID,95.895,VALID,0,VALID,16.5452,VALID,159,VALID,1.16562,
2010-09-13, 03:36:04,VALID,917.106,VALID,0,VALID,96.0398,VALID,0,VALID,16.5257,VALID,159,VALID,1.07227,
2010-09-13, 03:37:04,VALID,917.086,VALID,0,VALID,96.2304,VALID,0,VALID,16.5257,VALID,159,VALID,1.01172,
2010-09-13, 03:38:04,VALID,917.1,VALID,0,VALID,96.3829,VALID,0,VALID,16.5062,VALID,159,VALID,0.833984,
2010-09-13, 03:39:04,VALID,917.118,VALID,0,VALID,96.5658,VALID,0,VALID,16.5452,VALID,159,VALID,0.682422,
2010-09-13, 03:40:04,VALID,917.079,VALID,0,VALID,96.7183,VALID,0,VALID,16.6036,VALID,159,VALID,0.890234,
2010-09-13, 03:41:04,VALID,917.067,VALID,0,VALID,96.8021,VALID,0,VALID,16.6439,VALID,159,VALID,0.755078,
2010-09-13, 03:42:04,VALID,917.055,VALID,0,VALID,96.9089,VALID,0,VALID,16.7011,VALID,159,VALID,0.726172,
2010-09-13, 03:43:04,VALID,917.04,VALID,0,VALID,96.9775,VALID,0,VALID,16.7595,VALID,159,VALID,0.630078,
2010-09-13, 03:44:04,VALID,917.04,VALID,0,VALID,97.0003,VALID,0,VALID,16.7595,VALID,159,VALID,0.845312,
2010-09-13, 03:45:04,VALID,917.037,VALID,0,VALID,97.0232,VALID,0,VALID,16.7985,VALID,159,VALID,0.825391,